Skip Page Navigation
NASA JPL Caltech
NASA Logo - Jet Propulsion Laboratory + View the NASA Portal
+ Center for Near-Earth Object Studies
JPL Home Earth Solar System Stars & Galaxies Technology
JPL Solar System Dynamics
BODIES ORBITS EPHEMERIDES TOOLS PHYSICAL DATA DISCOVERY FAQ SITE MAP
JPL Small-Body Database Browser
Search: [ help ]  
134115 (2004 XA182)
Classification: Main-belt Asteroid          SPK-ID: 2134115
Ephemeris | Orbit Diagram | Orbital Elements | Mission Design | Physical Parameters | Discovery Circumstances | Close-Approach Data ]

[ show orbit diagram ]
Orbital Elements at Epoch 2459000.5 (2020-May-31.0) TDB
Reference: JPL 15 (heliocentric ecliptic J2000)
 Element Value Uncertainty (1-sigma)   Units 
e .08091474465070606 4.3459e-08  
a 3.161528809722481 2.7696e-08 au
q 2.905714513377936 1.505e-07 au
i 1.997938233211959 4.6469e-06 deg
node 52.50840668789174 0.00012598 deg
peri 53.88513131893193 0.00012978 deg
M 265.4718912622939 3.2674e-05 deg
tp 2459539.641311246472
(2021-Nov-21.14131125)
0.00018946 TDB
period 2053.260925671197
5.62
2.6981e-05
7.387e-08
d
yr
n .175330858099449 2.3039e-09 deg/d
Q 3.417343106067026 2.9937e-08 au
  Orbit Determination Parameters
   # obs. used (total)      460  
   data-arc span      7540 days (20.64 yr)  
   first obs. used      2000-03-03  
   last obs. used      2020-10-24  
   planetary ephem.      DE431  
   SB-pert. ephem.      SB431-N16  
   condition code      0  
   norm. resid. RMS      .53596  
   source      ORB  
   producer      Otto Matic  
   solution date      2020-Nov-12 16:11:43  

Additional Information
 Earth MOID = 1.92313 au 
 Jupiter MOID = 1.67891 au 
 T_jup = 3.199 
[ show covariance matrix ]

Ephemeris | Orbit Diagram | Orbital Elements | Mission Design | Physical Parameters | Discovery Circumstances | Close-Approach Data ]

Physical Parameter Table
Parameter Symbol Value Units Sigma Reference Notes
absolute magnitude H 15.5   n/a MPO453825  

134115 (2004 XA182)          Discovered 2004-Dec-15 by Spacewatch at Kitt Peak
Reference: 20060711/Numbers.arcLast Updated: 2006-07-17

[ hide close-approach data ]
Close-Approach Data   ...sorted by Date/Time (TDB)
Date/Time (TDB) Time Uncertainty
(days_HH:MM)
Body Nominal Distance (au) Minimum Distance (au) Maximum Distance (au) V-relative (km/s) V-infinity (km/s) JD (TDB) Time Uncertainty (minutes) Semi-major axis (km) Semi-minor axis (km) range-LOV angle (deg) N-sigma BP Orbit Ref. Reference Modified
1975-Mar-13 21:03 00:02 Jupiter 1.82202897964958 1.82202820944898 1.8220297498509 3.1819630197779 3.03234747377832 2442485.376998909 1.90526865815004 93.1059493460798 17.8439399021101 77.7533925181398 2617458.81499683 T 15 CATAB v2.0f-lin.ifort 2020-Nov-12 16:11:44 2020-Nov-12 16:11
1985-Nov-01 10:29 00:01 Jupiter 1.73839448303874 1.73839408349836 1.73839488257903 2.5478826613443 2.34887585589408 2446370.936844794 1.4188727490868 67.365334272246 7.34299956289671 -89.7115208358294 2873961.43590089 T 15 CATAB v2.0f-lin.ifort 2020-Nov-12 16:11:44 2020-Nov-12 16:11
1996-Jun-28 06:29 < 00:01 Jupiter 1.81676075144177 1.81676027493629 1.81676122794714 2.55553966864501 2.36607891612267 2450262.770110853 0.904751445802814 47.8553371185543 10.5695604283583 88.4418049733802 2752257.65763237 T 15 CATAB v2.0f-lin.ifort 2020-Nov-12 16:11:44 2020-Nov-12 16:11
2082-Apr-25 22:16 00:03 Jupiter 1.8492610672127 1.84926036749317 1.84926176693328 3.3431296391499 3.20319369835141 2481610.427860457 2.65302165375273 110.755943090689 17.5291390560931 80.7599505950734 2897455.33510508 T 15 CATAB v2.0f-lin.ifort 2020-Nov-12 16:11:44 2020-Nov-12 16:11
2092-Dec-15 18:00 00:03 Jupiter 1.72926819619903 1.72926775885583 1.72926863354242 2.60203180478602 2.40643685560927 2485497.250259882 3.14325813985227 125.220714923398 8.71224630094793 -87.4194835934068 2702336.75338842 T 15 CATAB v2.0f-lin.ifort 2020-Nov-12 16:11:44 2020-Nov-12 16:11
2103-Aug-11 07:16 00:04 Jupiter 1.77993132016856 1.77993060948432 1.77993203085311 2.49519296627257 2.29657147170015 2489386.802766740 3.59969809724306 75.129389099865 19.7931086132169 -74.3510667608755 3085554.72065793 T 15 CATAB v2.0f-lin.ifort 2020-Nov-12 16:11:44 2020-Nov-12 16:11
2114-Apr-13 17:20 00:04 Jupiter 1.95973824979322 1.95973699700542 1.95973950258092 2.96755239064061 2.81814532293673 2493285.222237472 4.00644989199539 65.9213802026015 31.5148417509259 50.3131314380257 1885552.990744 T 15 CATAB v2.0f-lin.ifort 2020-Nov-12 16:11:44 2020-Nov-12 16:11
2189-Jun-15 00:43 00:07 Jupiter 1.8849297544094 1.88492763371008 1.88493187511826 3.52641680545432 3.39659894078792 2520741.530094570 7.14754489765665 248.88573367396 21.2937310168413 71.1604176834171 2681832.40657094 T 15 CATAB v2.0f-lin.ifort 2020-Nov-12 16:11:44 2020-Nov-12 16:11
2200-Feb-06 08:02 00:08 Jupiter 1.73083176457948 1.7308307780807 1.73083275109578 2.6904218921095 2.50192400892813 2524629.834943350 7.69620182235635 325.109467046731 9.88687244696724 88.727612833375 2628959.10401694 T 15 CATAB v2.0f-lin.ifort 2020-Nov-12 16:11:44 2020-Nov-12 16:11

Alternate Designations
 2004 XA182 = 2003 UQ296 
Ephemeris | Orbit Diagram | Orbital Elements | Mission Design | Physical Parameters | Discovery Circumstances | Close-Approach Data ]
ABOUT SSD CREDITS/AWARDS PRIVACY/COPYRIGHT GLOSSARY LINKS
FirstGov 2020-Nov-30 03:01 UT
(server date/time)  
NASA Home Page
Site Manager:   Ryan S. Park
Webmaster  Alan B. Chamberlin